Regional Weather Roundup
Issued by NWS Goodland, KS

Home | Current Version | Previous Version | Graphics & Text | Print | Product List | Glossary On
Versions: 1 2 3 4 5 6 7 8 9 10 11 12 13 14 15 16 17 18 19 20 21 22 23 24 25 26 27 28 29 30 31 32 33 34 35 36 37 38 39 40 41 42 43 44 45 46 47 48 49 50
000
ASUS43 KGLD 280908
RWRGLD

GOODLAND FORECAST AREA HOURLY WEATHER ROUNDUP
NATIONAL WEATHER SERVICE GOODLAND KS
200 AM MST SUN DEC 28 2014

...OFFICIAL OBSERVATIONS...

CITY           SKY/WX    TMP DP  RH WIND       PRES   REMARKS
GOODLAND KS    PTCLDY    17  10  74 SW12      30.09S WCI   4
HILL CITY KS   PTCLDY    11   5  77 W7        30.17F
IMPERIAL NEB   PTCLDY    -1  -6  79 SW6       30.09S
MCCOOK NEB     PTCLDY     4   2  91 W5        30.14S
AKRON CO       CLEAR     10   5  80 W13       30.00F WCI  -5
BURLINGTON CO  PTCLDY    10   5  80 SW10      30.06F WCI  -4
LIMON CO       PTCLDY    -1  -5  82 N3        30.00F
$$

...UNOFFICIAL OBSERVATIONS...

CITY           SKY/WX    TMP DP  RH WIND       PRES   REMARKS
COLBY KS       CLEAR      7   3  85 W7        30.12S
NORTON KS      CLEAR      5   0  78 SW5       30.14S
SHARON SPRINGS   N/A     12   8  85 SW9         N/A
TRIBUNE KS     PTCLDY    12  10  92 SW7       30.12F
KIT CARSON CO    N/A      7   4  85 MISG        N/A
YUMA CO          N/A      3  -3  75 CALM        N/A
$$


USA.gov is the U.S. government's official web portal to all federal, state and local government web resources and services.